Probability
0 0 0 0 0 0 0 0 0 0 0 0 0 0 0 0 3 3 10 32 65 90 97 100 100 100 100 100 100 100 100 100 100 100 100 100 100 100 100 100 100 100 100 100 100 100 100 100 100
0 0 0 0 0 0 0 0 0 0 0 0 0 3 3 13 19 26 42 61 84 94 100 100 100 100 100 100 100 100 100 100 100 100 100 100 100 100 100 100 100 100 100 100 100 100 100 100 100
0 0 0 0 0 0 0 0 0 0 0 0 0 6 6 16 29 52 65 68 84 97 100 100 100 100 100 100 100 100 100 100 100 100 100 100 100 100 100 100 100 100 100 100 100 97 97 97 97
0 0 0 0 0 0 0 0 0 0 0 0 0 13 23 29 52 65 74 68 90 100 100 100 100 100 100 100 100 100 100 100 100 100 100 100 100 100 100 100 100 100 100 100 94 94 94 94 94
0 0 0 0 0 0 0 0 0 0 0 3 13 16 26 42 61 77 74 77 94 97 100 100 100 100 100 100 100 100 100 100 100 100 100 100 100 100 100 100 100 100 100 97 94 87 90 87 90
0 0 0 0 0 0 0 0 0 0 0 0 6 16 29 61 71 81 81 77 90 97 100 100 100 100 100 100 100 100 100 100 100 100 100 100 100 100 100 100 100 97 94 90 74 74 74 77 74
0 0 0 0 0 0 0 0 0 0 0 0 6 26 39 74 74 84 81 94 94 97 100 100 100 100 100 100 100 100 100 100 100 100 100 100 100 100 100 100 97 94 84 74 71 71 68 61 61
0 0 0 0 0 0 0 0 0 0 0 0 13 26 42 71 77 81 94 94 97 100 100 100 100 100 100 100 100 100 100 100 100 100 100 100 100 100 97 100 94 84 77 77 74 65 68 61 68
0 0 0 0 0 0 0 0 0 0 0 0 10 29 45 71 81 90 97 97 97 97 97 100 100 100 100 100 100 100 100 100 100 100 100 100 100 97 97 97 90 81 81 74 74 74 77 77 77
0 0 0 0 0 0 0 0 0 0 0 0 26 45 58 81 90 87 87 87 87 94 94 94 97 100 100 100 100 100 100 100 100 100 100 94 77 84 94 87 90 90 84 87 87 81 74 55 26
0 0 0 0 0 0 0 0 0 0 0 3 19 45 65 81 81 84 87 87 87 94 94 94 97 97 97 94 100 100 97 97 97 100 94 74 52 48 61 55 68 77 84 65 58 52 42 19 13
0 0 0 0 0 0 0 0 0 0 3 10 23 48 61 81 81 87 90 94 90 90 90 94 90 90 84 90 94 94 90 87 77 77 71 48 39 35 32 16 32 42 42 45 29 23 19 10 10
0 0 0 0 0 0 0 0 3 10 10 29 35 48 71 68 74 87 90 87 77 74 77 81 84 74 71 77 81 84 71 68 58 61 61 42 35 32 23 6 16 29 19 19 13 13 10 10 10
0 0 0 0 0 0 0 3 6 6 19 23 39 42 55 68 77 81 71 74 68 65 71 74 74 61 65 65 61 55 52 48 45 45 48 45 19 16 10 3 10 10 10 10 6 10 3 3 6
0 0 0 0 0 0 0 3 3 10 10 23 39 35 42 52 68 68 61 58 48 48 52 58 61 58 42 48 39 35 35 26 26 26 26 39 13 6 3 0 6 10 3 3 6 3 3 3 3
0 0 0 0 0 0 0 0 6 10 10 16 23 39 42 39 48 52 48 39 42 42 48 45 58 42 35 32 29 26 23 13 6 13 16 23 16 3 6 3 6 6 3 3 3 3 3 3 3
0 0 0 0 0 0 0 0 6 6 16 16 19 26 26 29 32 32 29 32 29 26 29 29 29 26 29 23 19 13 13 6 6 6 3 6 16 6 6 6 6 3 3 3 3 3 3 3 0
0 0 0 0 0 0 3 16 23 16 23 26 26 26 23 19 23 19 19 29 26 26 26 29 19 16 16 13 10 3 6 0 0 0 0 3 3 10 3 6 3 3 3 3 3 3 0 0 0
0 0 0 0 0 6 6 19 23 16 19 23 23 23 23 16 13 19 16 16 16 19 19 19 16 6 3 3 3 0 0 0 0 0 0 0 0 3 3 0 0 0 0 0 0 0 0 0 0
0 0 0 0 0 0 3 16 16 16 19 19 16 19 19 19 13 13 16 13 16 16 6 10 10 10 3 3 0 0 0 0 0 0 0 0 3 0 0 0 0 0 0 0 0 0 0 0 0
0 0 0 0 0 0 0 0 13 16 13 13 10 13 16 19 19 10 6 6 13 13 10 16 13 6 6 3 0 0 0 0 0 0 0 0 3 0 0 0 0 0 0 0 0 0 0 0 0
0 0 0 0 0 0 0 0 0 16 13 16 19 19 23 16 16 13 10 6 6 10 10 13 6 6 3 0 0 0 3 3 0 0 0 0 0 3 0 0 0 0 0 0 0 0 0 0 0
0 0 0 0 0 0 0 0 0 13 13 16 16 19 16 13 10 10 10 10 10 10 6 13 3 6 3 3 0 0 0 0 0 0 0 0 0 0 0 0 0 0 0 0 0 0 0 0 0
0 0 0 0 0 0 0 0 0 0 0 13 19 16 16 3 3 3 3 10 10 10 10 13 10 10 3 3 0 0 0 0 0 0 0 0 0 0 0 0 0 0 0 0 0 0 0 0 0
0 0 0 0 0 0 0 0 0 3 3 10 13 13 10 6 0 0 3 3 3 10 13 6 6 3 0 0 0 0 0 0 0 0 0 0 0 0 0 0 0 0 0 0 0 0 0 0 0
0 0 0 0 0 0 0 0 6 16 10 3 6 6 6 3 0 0 0 0 0 0 0 3 3 3 0 0 0 0 0 0 0 0 0 0 0 0 0 0 0 0 0 0 0 0 0 0 0
0 0 0 0 0 0 0 0 10 23 13 6 0 3 0 0 0 0 0 0 0 0 0 0 3 3 3 0 0 0 0 0 0 0 0 0 0 0 0 0 0 0 0 0 0 0 0 0 0
0 0 0 0 0 0 0 0 0 10 10 6 6 10 0 0 0 0 0 0 0 0 0 3 3 3 0 0 0 0 0 0 0 0 0 0 0 0 0 0 0 0 0 0 0 0 0 0 0
0 0 0 0 0 0 0 0 0 0 3 6 6 0 0 0 0 0 0 0 0 0 0 0 0 0 0 0 0 0 0 0 0 0 0 0 0 0 0 0 0 0 0 0 0 0 0 0 0
0 0 0 0 0 0 0 0 0 0 3 6 0 0 0 0 0 0 0 0 0 0 0 0 0 0 0 0 0 0 0 0 0 0 0 0 0 0 0 0 0 0 0 0 0 0 0 0 0
Height
5866 5868 5869 5871 5872 5873 5873 5873 5873 5873 5874 5875 5875 5876 5876 5877 5879 5881 5879 5878 5878 5879 5880 5882 5883 5884 5885 5886 5887 5888 5889 5890 5891 5892 5893 5894 5895 5896 5896 5896 5896 5896 5896 5896 5896 5896 5895 5895 5895
5863 5865 5867 5868 5869 5870 5871 5871 5871 5870 5872 5872 5873 5874 5874 5875 5876 5876 5876 5876 5876 5877 5878 5880 5881 5883 5883 5884 5885 5886 5886 5888 5889 5890 5891 5892 5893 5894 5894 5894 5895 5895 5895 5895 5895 5895 5894 5894 5894
5860 5862 5863 5864 5866 5868 5869 5869 5868 5868 5869 5870 5871 5872 5872 5872 5873 5874 5874 5874 5874 5875 5876 5878 5879 5880 5881 5882 5883 5883 5884 5885 5886 5888 5889 5890 5891 5892 5892 5892 5893 5893 5893 5893 5893 5893 5893 5893 5893
5857 5858 5860 5862 5864 5866 5865 5866 5865 5865 5866 5867 5868 5869 5870 5871 5871 5871 5871 5872 5873 5873 5874 5875 5877 5878 5879 5880 5880 5881 5882 5883 5884 5885 5886 5887 5888 5889 5890 5890 5891 5891 5891 5892 5892 5892 5892 5892 5892
5853 5854 5856 5858 5861 5862 5862 5862 5862 5862 5862 5863 5865 5867 5868 5869 5869 5869 5869 5870 5871 5872 5872 5873 5874 5875 5876 5877 5877 5878 5879 5880 5881 5883 5884 5885 5886 5887 5888 5888 5888 5889 5889 5890 5890 5891 5891 5891 5891
5850 5850 5852 5854 5856 5858 5858 5858 5858 5859 5859 5860 5862 5864 5866 5866 5867 5867 5868 5868 5869 5870 5870 5871 5872 5872 5873 5874 5875 5875 5876 5877 5878 5880 5881 5882 5884 5884 5885 5886 5886 5887 5887 5888 5888 5889 5889 5890 5889
5846 5846 5847 5850 5852 5853 5854 5853 5854 5854 5855 5857 5859 5862 5864 5864 5864 5865 5866 5867 5867 5867 5868 5868 5869 5870 5871 5871 5872 5873 5873 5874 5876 5877 5879 5880 5881 5882 5883 5884 5884 5885 5885 5886 5886 5887 5887 5888 5888
5841 5843 5843 5845 5847 5848 5848 5848 5849 5850 5852 5854 5856 5858 5861 5862 5862 5863 5863 5864 5865 5865 5865 5866 5866 5867 5868 5868 5869 5870 5870 5872 5873 5874 5876 5877 5878 5879 5880 5881 5882 5882 5883 5883 5884 5885 5885 5886 5886
5836 5838 5839 5840 5841 5842 5842 5843 5844 5845 5848 5849 5852 5855 5857 5858 5859 5860 5861 5861 5862 5862 5862 5862 5863 5864 5865 5865 5866 5867 5868 5869 5870 5871 5873 5874 5875 5876 5877 5878 5879 5880 5880 5881 5882 5882 5883 5884 5884
5832 5833 5834 5834 5835 5836 5836 5838 5838 5840 5843 5845 5847 5850 5853 5855 5856 5857 5858 5858 5858 5859 5859 5859 5860 5861 5861 5862 5863 5864 5865 5866 5867 5868 5870 5871 5872 5873 5874 5876 5876 5877 5878 5878 5879 5880 5881 5881 5882
5827 5828 5828 5828 5829 5830 5831 5832 5833 5835 5838 5841 5843 5845 5848 5851 5852 5854 5855 5856 5856 5856 5856 5856 5857 5857 5858 5859 5859 5860 5862 5863 5864 5865 5866 5867 5869 5870 5871 5872 5873 5874 5875 5875 5876 5877 5878 5878 5879
5822 5822 5823 5823 5823 5825 5826 5827 5828 5831 5834 5836 5838 5840 5844 5847 5848 5850 5850 5851 5852 5852 5852 5852 5852 5853 5854 5855 5856 5857 5858 5859 5860 5861 5862 5864 5865 5866 5868 5869 5870 5871 5872 5872 5873 5874 5874 5875 5875
5817 5817 5817 5818 5818 5819 5820 5822 5823 5825 5828 5830 5833 5835 5839 5842 5844 5845 5846 5847 5848 5848 5849 5848 5849 5849 5850 5851 5852 5853 5854 5854 5856 5858 5859 5860 5861 5863 5864 5865 5866 5867 5868 5869 5870 5870 5871 5871 5871
5812 5812 5812 5812 5812 5813 5814 5816 5817 5820 5822 5824 5827 5830 5833 5836 5839 5841 5842 5842 5843 5845 5845 5844 5845 5845 5846 5847 5848 5848 5849 5850 5852 5854 5855 5856 5857 5859 5860 5862 5863 5864 5864 5865 5866 5866 5867 5867 5867
5806 5807 5806 5806 5806 5806 5808 5810 5811 5813 5815 5818 5821 5824 5827 5830 5833 5836 5837 5838 5839 5839 5840 5839 5839 5840 5841 5842 5842 5843 5843 5845 5847 5849 5851 5852 5853 5854 5856 5857 5858 5859 5860 5861 5862 5862 5863 5863 5863
5801 5801 5801 5801 5800 5801 5803 5804 5806 5806 5808 5811 5814 5817 5820 5824 5828 5830 5832 5833 5834 5834 5834 5835 5835 5835 5835 5836 5837 5837 5839 5841 5843 5844 5846 5847 5848 5850 5851 5852 5854 5854 5855 5856 5857 5858 5858 5858 5858
5795 5795 5795 5796 5795 5795 5796 5798 5800 5800 5802 5805 5808 5811 5814 5818 5821 5824 5827 5828 5828 5828 5828 5829 5829 5828 5828 5830 5831 5833 5834 5836 5837 5839 5840 5842 5843 5845 5846 5847 5848 5849 5850 5851 5852 5853 5853 5853 5853
5790 5790 5790 5791 5790 5790 5790 5792 5794 5795 5797 5799 5802 5804 5808 5811 5815 5818 5820 5822 5823 5823 5823 5823 5824 5822 5823 5824 5826 5827 5829 5830 5832 5833 5835 5837 5838 5840 5841 5842 5844 5844 5845 5846 5847 5847 5847 5847 5847
5786 5786 5786 5786 5785 5785 5786 5787 5789 5790 5792 5794 5796 5799 5802 5805 5809 5812 5814 5816 5817 5818 5818 5818 5818 5818 5818 5819 5821 5822 5822 5824 5826 5828 5829 5831 5833 5834 5836 5837 5838 5839 5840 5840 5841 5841 5841 5841 5841
5781 5781 5782 5782 5781 5781 5782 5783 5784 5785 5787 5789 5791 5793 5796 5799 5802 5805 5808 5810 5812 5813 5813 5813 5813 5812 5813 5814 5815 5816 5817 5818 5820 5822 5824 5825 5827 5829 5830 5832 5833 5833 5834 5834 5834 5835 5835 5834 5834
5778 5777 5778 5778 5777 5777 5778 5779 5780 5781 5783 5784 5786 5789 5791 5794 5797 5799 5802 5804 5806 5806 5807 5808 5807 5807 5807 5807 5809 5810 5811 5812 5815 5817 5819 5820 5822 5823 5824 5826 5827 5828 5829 5829 5829 5829 5829 5828 5828
5774 5774 5773 5773 5773 5773 5775 5775 5776 5777 5778 5780 5782 5784 5786 5789 5791 5794 5796 5798 5800 5801 5802 5802 5802 5802 5802 5803 5803 5804 5805 5807 5809 5810 5813 5814 5816 5817 5818 5820 5821 5822 5822 5823 5823 5823 5822 5822 5821
5770 5769 5769 5769 5769 5770 5771 5771 5773 5773 5775 5776 5778 5779 5781 5784 5786 5788 5790 5792 5794 5795 5796 5796 5797 5798 5798 5798 5798 5799 5799 5801 5804 5805 5807 5809 5810 5811 5812 5813 5814 5815 5816 5816 5816 5816 5816 5815 5815
5766 5766 5765 5765 5766 5767 5767 5768 5769 5770 5771 5773 5774 5776 5777 5779 5781 5783 5785 5786 5788 5790 5791 5791 5792 5793 5793 5793 5794 5793 5794 5795 5797 5799 5801 5803 5805 5806 5807 5807 5808 5809 5809 5809 5809 5809 5809 5808 5807
5762 5762 5762 5762 5762 5763 5763 5763 5765 5766 5767 5768 5770 5771 5773 5774 5776 5777 5779 5781 5782 5783 5785 5786 5786 5786 5786 5787 5788 5788 5788 5789 5792 5794 5795 5797 5799 5800 5801 5802 5802 5802 5802 5802 5802 5802 5802 5801 5800
5758 5759 5759 5759 5759 5759 5759 5760 5762 5762 5763 5764 5765 5766 5767 5768 5770 5771 5773 5775 5776 5777 5778 5779 5780 5780 5780 5781 5782 5782 5783 5784 5786 5788 5790 5791 5793 5794 5795 5795 5795 5795 5795 5795 5794 5794 5793 5792 5791
5755 5755 5756 5756 5755 5756 5756 5757 5758 5758 5759 5760 5761 5761 5762 5762 5764 5766 5767 5769 5770 5770 5771 5772 5773 5774 5775 5776 5776 5777 5777 5779 5780 5782 5784 5785 5786 5787 5788 5788 5788 5788 5788 5787 5786 5785 5784 5783 5782
5753 5752 5752 5752 5752 5752 5753 5754 5755 5755 5755 5756 5756 5756 5757 5757 5758 5759 5761 5762 5763 5764 5765 5766 5767 5768 5769 5769 5770 5772 5773 5773 5774 5776 5777 5778 5779 5779 5780 5780 5780 5779 5779 5778 5777 5776 5775 5773 5772
5751 5750 5750 5750 5750 5750 5750 5753 5751 5752 5752 5752 5752 5752 5752 5752 5753 5753 5755 5756 5757 5758 5759 5760 5761 5762 5762 5763 5764 5765 5766 5767 5769 5769 5770 5770 5771 5771 5771 5771 5771 5770 5770 5769 5768 5766 5764 5763 5761
5748 5748 5748 5748 5747 5747 5747 5751 5748 5748 5748 5747 5747 5747 5748 5747 5748 5748 5749 5750 5751 5752 5753 5754 5754 5755 5756 5757 5758 5758 5759 5760 5761 5761 5762 5763 5763 5763 5763 5762 5762 5761 5760 5759 5758 5756 5754 5752 5750
Wind_Speed
21 19 17 16 16 15 15 16 18 19 19 17 15 14 12 9 6 5 4 4 3 3 3 4 6 8 8 9 8 8 8 8 8 8 8 8 8 8 8 9 9 9 8 9 9 9 8 8 7
23 22 20 19 17 15 15 17 19 20 19 18 17 15 13 9 7 7 5 5 5 4 4 4 6 7 8 8 8 8 8 8 9 9 9 9 9 9 9 9 9 8 8 8 8 8 7 7 6
26 25 24 21 18 15 15 17 19 21 20 19 18 16 14 11 9 9 7 7 6 5 5 6 7 8 8 8 9 9 9 9 10 10 10 10 10 10 10 9 9 8 8 8 7 7 7 6 6
26 27 26 24 19 17 18 19 21 22 22 20 19 17 15 13 11 10 8 8 8 7 7 7 8 9 10 10 10 10 11 11 11 11 11 11 10 10 10 10 9 9 8 8 7 7 7 6 6
27 27 27 25 21 20 20 21 22 23 24 23 21 19 17 14 12 10 9 8 8 9 8 8 9 10 10 10 10 11 11 12 12 12 12 12 11 11 11 10 10 10 9 8 7 7 7 6 6
25 27 27 25 23 23 23 24 25 25 25 25 23 20 18 16 14 9 8 8 9 9 9 9 10 10 10 11 11 11 12 13 13 13 13 13 12 12 12 11 11 10 9 8 8 7 7 6 6
25 25 26 25 25 25 26 27 27 28 27 27 25 21 18 16 14 12 8 8 8 9 9 9 9 10 11 11 11 12 12 13 14 14 14 14 13 13 13 12 12 11 10 9 8 8 7 7 6
25 25 24 24 25 26 28 30 30 30 29 28 26 23 19 17 15 12 10 10 10 11 11 10 9 10 11 11 12 12 12 13 14 15 15 15 14 14 13 13 12 11 11 10 9 9 8 7 7
24 24 24 24 26 28 30 32 32 33 31 30 28 25 22 20 15 13 11 11 12 12 12 10 10 10 11 11 12 13 13 14 15 16 16 16 15 15 14 13 13 12 12 11 10 10 9 9 8
23 22 23 25 27 29 32 33 34 34 33 30 29 27 24 21 17 15 13 13 14 13 12 11 11 11 12 12 13 13 14 16 16 17 17 17 16 16 15 15 14 14 12 12 11 11 11 10 10
22 22 23 25 27 29 32 34 35 36 34 32 31 29 25 22 19 17 17 16 16 16 14 13 13 13 13 14 14 15 15 16 17 18 18 18 18 17 17 16 16 15 14 13 13 12 12 12 11
23 23 23 24 26 28 31 34 35 36 35 34 33 31 27 23 20 19 18 17 18 17 16 16 16 15 16 16 15 16 17 18 18 19 19 19 19 18 18 17 17 16 15 14 14 14 14 13 13
22 23 23 24 26 27 30 32 34 35 35 35 34 33 30 26 22 20 19 19 18 18 18 16 16 17 18 18 17 18 19 19 19 20 20 20 20 19 19 18 18 17 16 16 16 15 15 15 15
22 22 22 23 25 26 28 30 33 34 35 35 35 33 31 28 25 23 21 20 19 19 19 18 19 19 19 19 19 20 21 21 21 21 21 21 21 20 20 20 19 18 17 17 17 17 17 17 17
23 22 22 23 24 26 28 29 30 33 36 36 36 35 33 31 28 25 24 22 21 20 20 20 20 21 22 21 21 22 22 23 23 23 23 22 22 22 21 20 21 20 19 19 19 19 19 19 20
23 23 22 23 24 26 27 27 28 32 35 37 37 36 35 33 30 27 26 25 24 23 22 22 21 22 23 23 23 23 24 24 24 24 23 24 24 23 22 22 22 22 21 21 21 20 21 21 21
23 23 22 22 24 26 27 27 27 30 33 35 36 37 36 34 31 29 28 26 26 26 23 22 23 23 22 24 22 22 24 25 26 25 25 24 24 24 24 24 24 23 23 23 23 22 23 23 24
23 22 22 22 23 25 26 27 26 28 30 32 34 36 36 35 33 31 30 29 27 27 25 25 25 24 24 24 24 23 24 25 26 26 26 25 25 24 24 25 24 25 25 24 25 25 26 25 25
22 21 20 20 22 24 25 25 25 26 28 30 31 33 34 34 33 31 30 29 28 27 27 26 26 25 26 25 24 24 24 24 25 25 25 25 25 25 24 24 24 24 24 24 25 26 27 27 27
21 20 19 19 21 23 24 24 23 23 24 26 28 30 32 32 31 31 31 30 29 28 27 27 27 27 28 27 26 26 25 26 26 25 25 25 25 24 24 24 24 24 24 25 25 26 27 28 27
19 19 19 20 21 23 23 23 22 22 22 23 25 27 28 30 30 31 32 31 30 29 29 29 28 27 27 26 26 26 25 25 26 26 26 24 24 24 24 23 23 24 24 25 25 26 27 27 28
18 19 20 20 21 21 22 22 22 22 21 21 22 23 25 27 28 30 31 31 30 29 28 27 26 26 27 26 25 25 25 24 24 24 25 25 25 24 24 24 24 24 25 25 25 26 26 27 28
18 19 20 21 22 21 21 22 20 20 19 19 20 20 21 23 26 28 29 29 29 27 26 26 25 26 26 26 24 23 24 23 23 23 22 22 22 22 22 22 23 24 25 25 26 27 26 27 28
18 19 20 21 22 21 21 22 21 18 19 19 19 20 20 21 23 25 26 27 27 26 26 25 25 24 24 24 23 21 22 21 20 21 21 21 21 20 21 22 23 24 25 25 25 27 27 28 29
18 18 19 19 19 20 19 21 21 19 20 19 20 20 21 22 22 23 24 24 25 26 26 26 25 24 23 23 22 21 21 20 19 19 20 20 20 20 21 21 23 24 26 27 28 29 30 31 32
16 17 17 18 18 18 19 20 20 19 19 20 20 20 20 21 22 23 24 24 25 25 26 26 25 24 22 23 24 22 22 22 20 20 22 22 23 24 24 24 25 27 29 30 30 31 33 34 35
15 15 15 17 18 18 17 17 17 18 19 19 20 20 20 21 22 23 23 24 24 24 25 25 25 24 24 23 23 24 23 23 22 22 24 25 26 26 27 27 29 30 31 32 33 34 35 36 37
13 13 14 15 16 16 16 16 17 17 17 17 18 20 20 20 21 22 23 23 24 23 24 25 24 25 24 23 23 24 25 25 25 25 26 26 27 27 27 29 30 32 33 34 35 36 37 38 39
12 13 14 15 15 16 16 15 15 15 16 16 16 18 19 18 19 21 22 24 24 24 24 25 25 25 24 23 23 24 25 25 25 25 27 27 28 28 29 30 31 32 34 35 36 37 38 39 40
11 12 13 14 14 14 15 13 12 13 14 14 14 14 16 16 17 19 20 22 23 23 24 24 24 24 24 24 24 24 24 25 26 27 27 28 29 30 31 32 33 34 35 36 37 38 39 40 40
Wind_Direction
258 258 258 258 256 256 257 255 253 253 255 258 257 259 259 256 258 261 229 191 175 186 215 244 247 252 254 254 252 253 257 261 261 264 266 270 274 280 288 296 301 303 306 310 314 317 318 319 319
256 257 258 258 259 260 259 257 255 255 258 259 261 256 250 249 251 247 229 200 176 180 212 240 249 251 253 253 251 252 256 259 261 264 266 267 271 276 282 289 294 297 302 307 310 312 312 312 312
254 255 256 256 258 261 260 258 257 258 259 262 263 260 256 254 258 251 228 204 192 198 217 238 247 248 250 251 249 248 250 254 257 261 263 265 268 273 278 283 288 292 296 300 303 304 304 303 301
254 254 255 256 256 258 258 256 256 259 259 261 264 262 258 261 262 252 225 211 211 213 221 237 245 247 249 250 249 246 246 249 252 255 259 261 264 270 276 280 283 287 290 293 295 294 294 294 292
253 254 255 255 253 254 255 255 255 258 259 260 262 262 262 259 265 254 232 223 219 221 226 236 244 247 249 250 248 245 244 245 249 250 253 256 260 266 272 274 278 281 284 287 287 285 285 288 284
255 255 255 254 250 250 252 253 255 257 257 260 262 263 267 269 267 263 247 233 222 227 227 236 245 248 250 251 249 246 246 246 247 247 248 251 256 262 266 267 271 275 278 279 278 275 278 279 277
256 256 256 253 248 247 249 251 252 255 256 259 263 265 269 270 271 267 258 245 233 235 230 235 244 248 250 253 251 248 248 248 246 245 244 247 251 256 259 261 265 267 269 271 271 269 271 268 267
258 257 256 254 249 246 247 248 250 252 254 259 263 264 266 267 271 265 262 250 247 240 240 244 248 251 251 252 252 249 247 247 245 243 243 246 248 250 253 255 259 260 262 263 262 263 263 260 263
261 259 257 253 248 244 245 246 248 251 254 257 262 263 265 264 265 266 258 256 254 246 244 248 252 256 257 256 255 251 246 244 243 242 241 245 246 246 247 248 251 253 255 256 255 256 257 256 260
263 261 257 252 248 244 245 246 247 250 252 255 259 261 264 265 264 267 262 259 257 255 252 250 256 258 259 257 256 252 246 242 241 241 242 244 244 244 243 243 245 246 248 250 252 254 254 254 257
266 263 259 255 251 246 245 246 247 249 250 252 256 259 262 263 262 263 265 263 260 258 258 253 256 261 260 258 255 250 246 243 241 241 241 241 241 241 240 240 242 242 242 245 249 252 253 254 257
271 267 262 258 256 251 246 247 248 249 250 251 254 257 259 261 260 259 258 259 264 263 260 252 253 258 256 256 257 249 245 243 240 240 239 239 239 238 238 238 239 239 241 245 249 252 254 256 261
274 271 267 261 258 254 250 247 248 249 249 250 252 254 256 258 257 257 255 257 260 264 262 255 257 260 258 256 255 250 244 242 242 242 240 240 238 237 237 237 238 238 241 246 249 252 256 260 265
275 273 270 265 260 256 252 248 246 246 247 248 249 251 253 255 255 255 256 257 261 266 266 262 262 261 258 259 253 247 243 240 241 241 241 239 238 237 237 238 239 239 242 247 251 255 260 262 265
276 272 268 265 260 256 254 250 247 245 244 245 246 248 250 251 251 254 255 258 260 260 265 263 267 263 260 260 254 247 244 240 239 239 240 238 238 238 238 238 240 241 244 248 251 256 261 263 266
275 271 266 263 260 257 254 251 248 246 243 242 243 245 247 248 248 251 254 257 260 263 266 265 266 263 258 255 250 244 240 239 237 237 238 238 237 238 239 238 240 243 246 250 252 258 262 263 265
273 269 264 260 258 255 254 252 247 247 245 243 242 243 245 245 247 250 252 256 260 266 266 268 269 265 257 253 249 245 239 236 237 236 236 237 238 239 241 242 242 245 247 250 254 258 260 263 266
273 270 264 259 257 255 254 254 250 247 245 243 242 242 244 245 246 249 252 255 259 266 266 269 270 267 260 256 250 246 238 237 238 238 236 235 237 239 241 243 245 248 250 253 256 257 260 262 265
274 271 267 261 257 256 255 255 253 250 247 244 242 242 243 245 245 247 251 255 260 265 269 270 268 265 259 254 247 242 242 240 237 236 235 235 237 239 241 243 246 248 250 255 258 260 260 261 265
274 271 267 260 257 257 256 256 254 251 249 246 242 241 241 243 244 246 250 253 259 265 270 271 269 267 259 254 252 248 245 240 238 236 238 239 237 239 240 244 248 251 253 257 260 261 261 262 264
275 273 267 260 258 258 257 257 254 250 249 245 241 240 241 242 244 246 249 254 259 264 268 271 270 267 261 256 249 247 242 241 240 241 241 243 243 244 246 250 253 255 256 259 262 264 264 266 267
275 272 269 262 259 259 257 258 254 249 246 241 239 239 240 240 243 245 249 252 256 261 264 265 264 262 261 255 254 245 241 243 244 241 240 242 245 248 248 252 256 258 260 262 265 265 267 269 270
275 269 267 265 262 261 259 261 258 253 247 243 241 241 243 243 243 245 248 252 254 257 260 259 257 258 260 257 253 250 243 241 241 238 240 244 248 253 255 257 257 260 263 265 265 266 269 270 274
276 270 267 265 264 264 261 261 260 256 253 249 247 248 250 249 248 248 251 253 253 255 256 254 255 258 263 263 259 256 250 245 244 245 244 249 255 257 260 263 262 262 264 266 268 269 269 274 278
273 272 269 267 266 266 263 259 260 263 260 255 252 253 255 253 254 253 251 251 254 256 256 257 256 259 263 264 264 263 255 249 248 248 248 253 258 261 264 264 264 263 265 268 271 272 273 276 278
273 270 271 274 272 268 266 262 262 263 262 261 258 260 260 256 255 254 254 253 256 258 258 258 259 261 263 264 264 267 258 254 252 252 254 256 259 261 262 264 266 267 270 271 272 273 276 277 279
275 270 271 273 272 269 265 263 263 264 266 266 265 266 265 261 257 256 256 255 257 257 257 259 262 262 262 263 266 265 263 259 255 256 257 259 261 263 266 267 269 270 272 274 276 277 279 279 280
278 272 270 272 272 271 270 269 268 265 270 273 270 267 268 266 259 256 256 256 256 258 258 258 262 262 261 262 263 261 263 264 261 260 260 262 264 266 269 270 272 273 273 275 277 279 280 281 281
279 276 273 272 271 272 274 274 271 271 276 279 274 267 269 268 263 258 256 254 256 257 258 261 261 259 261 262 262 261 262 263 262 263 264 266 268 270 271 273 276 276 276 277 278 280 281 281 282
282 276 272 271 274 277 280 277 274 276 281 280 276 271 270 274 269 266 258 255 256 257 258 260 262 261 262 263 263 263 263 264 265 267 269 271 273 274 274 276 276 277 277 279 280 281 282 283 284